{"data":{"norad_id":51786,"intl_designator":"2022-017U","name":"STARLINK-3638","alt_names":[],"object_type":"PAYLOAD","status":"ACTIVE","operator":null,"country":"US","launch_date":"2022-02-25","launch_site_code":"AFWTR","launch_vehicle":null,"mission":null,"orbit_class":"UNKNOWN","rcs_meters":null,"size_class":null,"mass_kg":null,"dimensions":null,"purposes":["comms"],"wikipedia_slug":null,"has_3d_model":false,"image_url":null,"decayed_at":null,"tle_current":{"epoch":"2026-09-19T07:31:21.369792Z","epoch_age_seconds":154747,"freshness":"FRESH","line1":"1 51786U 22017U   26262.31344178  .00001100  00000+0  43721-4 0  9990","line2":"2 51786  53.1593 184.9158 0001385  85.1000 275.0161 15.34380394251710","mean_motion":15.34380394,"eccentricity":0.0001385,"inclination_deg":53.1593,"raan_deg":184.9158,"arg_perigee_deg":85.1,"mean_anomaly_deg":275.0161,"bstar":4.3721e-5,"rev_number":25171,"period_min":93.848957248863,"perigee_km":461.8140495472,"apogee_km":463.70897843557,"semimajor_km":6840.8985139914,"source":"CELESTRAK","updated_at":"2026-09-20T09:00:39.939614Z"}}}